N4AN Weather Reports


time (UTC)temp
C
wind
direction
speed
KPH
gust
KPH
rain 1hr
cm
rain 24hr
cm
rain mn
cm
humidity
%
barometer
mb
20260503052926 26 250 32.2 0.0 0.00 0.00 0.00 82 1008.2
20260503052417 26 265 33.8 0.0 0.00 0.00 0.00 82 1008.3
20260503051917 26 257 40.2 0.0 0.00 0.00 0.00 81 1008.3
20260503051416 26 255 38.6 0.0 0.00 0.00 0.00 81 1008.3
20260503050916 26 267 41.8 0.0 0.00 0.00 0.00 80 1008.3
20260503050412 26 310 29.0 0.0 0.00 0.00 0.00 80 1008.5
20260503045912 26 305 6.4 0.0 0.00 0.00 0.00 80 1008.5
20260503045412 26 258 24.1 0.0 0.00 0.00 0.00 80 1008.5
20260503044912 26 262 40.2 0.0 0.00 0.00 0.00 79 1008.4
20260503044411 26 262 37.0 0.0 0.00 0.00 0.00 79 1008.4
20260503043751 26 255 38.6 0.0 0.00 0.00 0.00 79 1008.4
20260503043253 26 264 45.1 0.0 0.00 0.00 0.00 79 1008.3
20260503042750 26 255 41.8 0.0 0.00 0.00 0.00 78 1008.2
20260503042247 26 243 40.2 0.0 0.00 0.00 0.00 78 1008.3
20260503040002 26 260 22.5 0.0 0.00 0.00 0.00 77 1008.4
20260503034654 26 277 22.5 0.0 0.00 0.00 0.00 76 1008.4
20260503034158 26 274 37.0 0.0 0.00 0.00 0.00 76 1008.2
20260503033645 26 274 19.3 0.0 0.00 0.00 0.00 75 1008.2
20260503033140 26 335 17.7 0.0 0.00 0.00 0.00 75 1007.9
20260503032640 26 255 40.2 0.0 0.00 0.00 0.00 75 1007.7
20260503032113 26 262 45.1 0.0 0.00 0.00 0.00 75 1007.8
20260503031613 27 264 43.5 0.0 0.00 0.00 0.00 74 1007.8
20260503031113 27 248 40.2 0.0 0.00 0.00 0.00 74 1008.0
20260503030613 27 293 46.7 0.0 0.00 0.00 0.00 73 1007.7
20260503030112 27 288 38.6 0.0 0.00 0.00 0.00 73 1007.7
20260503025612 27 276 17.7 0.0 0.00 0.00 0.00 74 1007.7
20260503025112 27 276 38.6 0.0 0.00 0.00 0.00 74 1007.6
20260503024611 27 236 22.5 0.0 0.00 0.00 0.00 74 1007.6
20260503024111 27 259 35.4 0.0 0.00 0.00 0.00 73 1007.7
20260503023611 27 276 29.0 0.0 0.00 0.00 0.00 73 1007.8
20260503022610 27 274 43.5 0.0 0.00 0.00 0.00 72 1007.6
20260503022109 27 265 37.0 0.0 0.00 0.00 0.00 72 1007.6
20260503021608 27 267 27.4 0.0 0.00 0.00 0.00 72 1007.6
20260503021108 27 272 45.1 0.0 0.00 0.00 0.00 71 1007.5
20260503020608 27 255 27.4 0.0 0.00 0.00 0.00 71 1007.6
20260503020108 27 319 35.4 0.0 0.00 0.00 0.00 70 1007.4
20260503015607 27 248 41.8 0.0 0.00 0.00 0.00 70 1007.4
20260503015107 27 274 40.2 0.0 0.00 0.00 0.00 69 1007.3
20260503014607 27 253 54.7 0.0 0.00 0.00 0.00 69 1007.2
20260503014228 27 264 40.2 0.0 0.00 0.00 0.00 67 1007.2
20260503014222 27 258 45.1 0.0 0.00 0.00 0.00 68 1007.2
20260503014150 27 258 45.1 0.0 0.00 0.00 0.00 68 1007.2
20260503012604 28 262 40.2 0.0 0.00 0.00 0.00 66 1007.1
20260503012104 28 274 41.8 0.0 0.00 0.00 0.00 65 1007.1
20260503011604 28 257 43.5 0.0 0.00 0.00 0.00 64 1007.0
20260503011101 28 260 49.9 0.0 0.00 0.00 0.00 62 1006.9
20260503010601 28 259 51.5 0.0 0.00 0.00 0.00 62 1006.9
20260503010100 28 269 48.3 0.0 0.00 0.00 0.00 60 1006.8
20260503005557 28 290 37.0 0.0 0.00 0.00 0.00 59 1006.9
20260503005058 29 272 51.5 0.0 0.00 0.00 0.00 59 1006.7
20260503004557 29 250 25.7 0.0 0.00 0.00 0.00 58 1006.8
20260503004056 29 262 35.4 0.0 0.00 0.00 0.00 57 1006.7
20260503003556 29 272 11.3 0.0 0.00 0.00 0.00 57 1006.5
20260503003056 29 274 22.5 0.0 0.00 0.00 0.00 56 1006.5
20260503002555 30 283 20.9 0.0 0.00 0.00 0.00 55 1006.4
20260503002055 30 293 24.1 0.0 0.00 0.00 0.00 55 1006.4
20260503001555 30 278 24.1 0.0 0.00 0.00 0.00 54 1006.3
20260503001055 30 46 11.3 0.0 0.00 0.00 0.00 54 1006.3
20260503000554 30 271 49.9 0.0 0.00 0.00 0.00 53 1006.1
20260503000054 30 291 20.9 0.0 0.00 0.00 0.00 52 1006.0
20260502235554 30 271 41.8 0.0 0.00 0.00 0.00 50 1005.9
20260502235056 31 341 29.0 0.0 0.00 0.00 0.00 49 1005.9
20260502234552 31 263 37.0 0.0 0.00 0.00 0.00 48 1005.9
20260502234052 31 238 20.9 0.0 0.00 0.00 0.00 48 1005.7
20260502233552 31 250 12.9 0.0 0.00 0.00 0.00 47 1005.6
20260502233051 31 277 27.4 0.0 0.00 0.00 0.00 46 1005.6
20260502232551 31 295 12.9 0.0 0.00 0.00 0.00 46 1005.5
20260502232048 31 343 19.3 0.0 0.00 0.00 0.00 46 1005.5
20260502231547 31 257 25.7 0.0 0.00 0.00 0.00 46 1005.4
20260502231040 31 327 24.1 0.0 0.00 0.00 0.00 45 1005.2
20260502230543 31 223 30.6 0.0 0.00 0.00 0.00 45 1005.3
20260502230040 31 320 27.4 0.0 0.00 0.00 0.00 45 1005.2
20260502225538 31 326 14.5 0.0 0.00 0.00 0.00 45 1005.1
20260502225038 31 252 38.6 0.0 0.00 0.00 0.00 45 1005.0
20260502224037 31 306 9.7 0.0 0.00 0.00 0.00 47 1004.9
20260502223537 31 264 46.7 0.0 0.00 0.00 0.00 47 1005.1
20260502222602 32 253 54.7 0.0 0.00 0.00 0.00 46 1004.8
20260502222057 32 328 16.1 0.0 0.00 0.00 0.00 46 1005.0
20260502220254 32 285 35.4 0.0 0.00 0.00 0.00 45 1004.9
20260502215658 32 283 29.0 0.0 0.00 0.00 0.00 45 1004.8
20260502215154 32 310 24.1 0.0 0.00 0.00 0.00 44 1004.9
20260502214654 32 248 32.2 0.0 0.00 0.00 0.00 44 1004.9
20260502214154 32 250 38.6 0.0 0.00 0.00 0.00 44 1004.7
20260502212933 32 291 33.8 0.0 0.00 0.00 0.00 43 1004.8
20260502212428 32 308 22.5 0.0 0.00 0.00 0.00 43 1004.7
20260502211928 32 352 27.4 0.0 0.00 0.00 0.00 43 1004.5
20260502210928 32 271 43.5 0.0 0.00 0.00 0.00 42 1004.6
20260502210427 32 262 19.3 0.0 0.00 0.00 0.00 43 1004.5
20260502205927 32 295 22.5 0.0 0.00 0.00 0.00 45 1004.6
20260502205427 32 274 24.1 0.0 0.00 0.00 0.00 45 1004.6
20260502204927 32 259 43.5 0.0 0.00 0.00 0.00 43 1004.6
20260502204426 32 269 51.5 0.0 0.00 0.00 0.00 44 1004.6
20260502203926 32 255 48.3 0.0 0.00 0.00 0.00 45 1004.6
20260502203425 32 49 6.4 0.0 0.00 0.00 0.00 46 1004.6
20260502202925 32 239 33.8 0.0 0.00 0.00 0.00 45 1004.5
20260502202425 32 257 32.2 0.0 0.00 0.00 0.00 46 1004.5
20260502201925 32 223 53.1 0.0 0.00 0.00 0.00 46 1004.6
20260502201424 32 241 85.3 0.0 0.00 0.00 0.00 46 1004.5
20260502200924 32 239 37.0 0.0 0.00 0.00 0.00 48 1004.7
20260502200424 32 221 29.0 0.0 0.00 0.00 0.00 48 1004.8
20260502195923 32 238 64.4 0.0 0.00 0.00 0.00 47 1004.7
20260502195423 32 236 62.8 0.0 0.00 0.00 0.00 48 1004.7
20260502194923 32 245 48.3 0.0 0.00 0.00 0.00 49 1004.8
20260502194423 32 243 72.4 0.0 0.00 0.00 0.00 48 1005.0
20260502193922 32 230 56.3 0.0 0.00 0.00 0.00 47 1004.9
20260502193418 32 226 14.5 0.0 0.00 0.00 0.00 51 1004.9
20260502192918 32 245 49.9 0.0 0.00 0.00 0.00 51 1004.9
20260502192418 32 257 49.9 0.0 0.00 0.00 0.00 51 1005.2
20260502191917 32 253 29.0 0.0 0.00 0.00 0.00 52 1005.0
20260502191417 32 223 40.2 0.0 0.00 0.00 0.00 54 1005.0
20260502190917 32 101 16.1 0.0 0.00 0.00 0.00 54 1005.4
20260502190417 31 28 8.0 0.0 0.00 0.00 0.00 58 1005.2
20260502185913 31 56 4.8 0.0 0.00 0.00 0.00 70 1005.4
20260502185413 31 42 6.4 0.0 0.00 0.00 0.00 65 1005.4
20260502184913 30 93 12.9 0.0 0.00 0.00 0.00 66 1005.3
20260502184413 29 30 6.4 0.0 0.00 0.00 0.00 76 1005.2
20260502183912 29 118 8.0 0.0 0.00 0.00 0.00 75 1005.3
20260502183412 29 130 19.3 0.0 0.00 0.00 0.00 76 1005.3
20260502182909 28 324 3.2 0.0 0.00 0.00 0.00 79 1005.4
20260502182409 28 96 11.3 0.0 0.00 0.00 0.00 79 1005.6
20260502181909 28 81 8.0 0.0 0.00 0.00 0.00 79 1005.5
20260502181409 28 63 9.7 0.0 0.00 0.00 0.00 79 1005.6
20260502180908 28 86 20.9 0.0 0.00 0.00 0.00 78 1005.5
20260502180408 28 86 19.3 0.0 0.00 0.00 0.00 78 1005.5
20260502170401 28 82 16.1 0.0 0.00 0.00 0.00 80 1005.7
20260502163859 28 88 22.5 0.0 0.00 0.00 0.00 80 1006.0
20260502163359 28 248 16.1 0.0 0.00 0.00 0.00 80 1006.0
20260502162859 28 89 9.7 0.0 0.00 0.00 0.00 79 1006.1
20260502162358 28 20 8.0 0.0 0.00 0.00 0.00 79 1006.2
20260502161858 29 37 6.4 0.0 0.00 0.00 0.00 79 1006.3
20260502161401 29 30 14.5 0.0 0.00 0.00 0.00 78 1006.4
20260502160858 29 88 8.0 0.0 0.00 0.00 0.00 78 1006.3
20260502160357 29 146 12.9 0.0 0.00 0.00 0.00 78 1006.4
20260502151852 28 88 8.0 0.0 0.00 0.00 0.00 78 1006.7
20260502151351 28 88 16.1 0.0 0.00 0.00 0.00 79 1006.7
20260502150351 28 89 12.9 0.0 0.00 0.00 0.00 79 1006.7
20260502130333 28 74 8.0 0.0 0.00 0.00 0.00 80 1006.1
20260502123325 27 11 8.0 0.0 0.00 0.00 0.00 82 1006.4
20260502122323 27 68 4.8 0.0 0.00 0.00 0.00 82 1006.2
20260502121822 27 81 3.2 0.0 0.00 0.00 0.00 83 1006.4
20260502121321 27 63 3.2 0.0 0.00 0.00 0.00 83 1006.3
20260502120820 26 89 9.7 0.0 0.00 0.00 0.00 84 1006.2
20260502120320 26 88 9.7 0.0 0.00 0.00 0.00 84 1006.2
20260502115820 26 355 8.0 0.0 0.00 0.00 0.00 84 1006.2
20260502115320 26 152 8.0 0.0 0.00 0.00 0.00 84 1006.2
20260502114819 26 89 3.2 0.0 0.00 0.00 0.00 84 1006.4
20260502114317 26 83 8.0 0.0 0.00 0.00 0.00 84 1006.5
20260502113817 26 144 9.7 0.0 0.00 0.00 0.00 84 1006.5
20260502113314 26 98 4.8 0.0 0.00 0.00 0.00 84 1006.5
20260502112814 26 89 6.4 0.0 0.00 0.00 0.00 84 1006.5
20260502112313 26 56 3.2 0.0 0.00 0.00 0.00 84 1006.6
20260502111813 26 82 4.8 0.0 0.00 0.00 0.00 84 1006.5
20260502111313 26 89 8.0 0.0 0.00 0.00 0.00 84 1006.4
20260502110812 26 208 3.2 0.0 0.00 0.00 0.00 84 1006.5
20260502110312 26 1 4.8 0.0 0.00 0.00 0.00 84 1006.4
20260502105812 26 115 12.9 0.0 0.00 0.00 0.00 84 1006.4
20260502105311 26 119 4.8 0.0 0.00 0.00 0.00 84 1006.4
20260502104811 26 156 8.0 0.0 0.00 0.00 0.00 84 1006.5
20260502104309 25 240 8.0 0.0 0.00 0.00 0.00 85 1006.4
20260502103805 25 337 6.4 0.0 0.00 0.00 0.00 85 1006.3
20260502103305 25 178 16.1 0.0 0.00 0.00 0.00 85 1006.4
20260502102806 25 331 3.2 0.0 0.00 0.00 0.00 86 1006.3
20260502102306 25 184 20.9 0.0 0.00 0.00 0.00 86 1006.3
20260502101801 25 188 14.5 0.0 0.00 0.00 0.00 86 1006.3
20260502101301 25 181 12.9 0.0 0.00 0.00 0.00 86 1006.4
20260502100801 25 184 8.0 0.0 0.00 0.00 0.00 85 1006.5
20260502100300 25 183 9.7 0.0 0.00 0.00 0.00 85 1006.5
20260502091251 25 215 4.8 0.0 0.00 0.00 0.00 85 1006.3
20260502090843 25 230 9.7 0.0 0.00 0.00 0.00 85 1006.3
20260502090749 25 230 6.4 0.0 0.00 0.00 0.00 85 1006.4
20260502090249 25 178 1.6 0.0 0.00 0.00 0.00 85 1006.2
20260502071222 25 238 12.9 0.0 0.00 0.00 0.00 84 1006.2
20260502070722 25 246 9.7 0.0 0.00 0.00 0.00 84 1006.3
20260502070222 25 194 3.2 0.0 0.00 0.00 0.00 84 1006.2
20260502065718 25 220 16.1 0.0 0.00 0.00 0.00 84 1006.3
20260502065218 25 215 8.0 0.0 0.00 0.00 0.00 84 1006.3
20260502064718 25 207 17.7 0.0 0.00 0.00 0.00 84 1006.3
20260502064211 25 227 16.1 0.0 0.00 0.00 0.00 84 1006.3
20260502063711 25 198 14.5 0.0 0.00 0.00 0.00 84 1006.3
20260502063208 25 243 8.0 0.0 0.00 0.00 0.00 84 1006.3
20260502062708 25 200 9.7 0.0 0.00 0.00 0.00 84 1006.3
20260502062208 25 276 6.4 0.0 0.00 0.00 0.00 84 1006.3
20260502061206 25 46 4.8 0.0 0.00 0.00 0.00 85 1006.4
20260502060703 25 23 6.4 0.0 0.00 0.00 0.00 85 1006.3
20260502060203 25 81 6.4 0.0 0.00 0.00 0.00 85 1006.2
20260502055702 25 89 3.2 0.0 0.00 0.00 0.00 85 1006.2
20260502055202 25 96 8.0 0.0 0.00 0.00 0.00 84 1006.4
20260502054657 25 79 4.8 0.0 0.00 0.00 0.00 84 1006.3
20260502054157 25 88 4.8 0.0 0.00 0.00 0.00 84 1006.3
20260502053657 25 89 4.8 0.0 0.00 0.00 0.00 84 1006.2